Regional Weather Roundup
Issued by NWS

Home | Current Version | Previous Version | Graphics & Text | Print | Product List | Glossary On
Versions: 1 2 3 4 5 6 7 8 9 10 11 12 13 14 15 16 17 18 19 20 21 22 23 24 25 26 27 28 29 30 31 32 33 34 35 36 37 38 39 40 41 42 43 44 45 46 47 48 49 50
000
ASUS43 KIND 121109
RWRIN

WEATHER ROUNDUP FOR INDIANA
NATIONAL WEATHER SERVICE INDIANAPOLIS IN
700 AM EDT SAT JUL 12 2014

NOTE: "FAIR" INDICATES FEW OR NO CLOUDS BELOW 12,000 FEET WITH NO
SIGNIFICANT WEATHER AND/OR OBSTRUCTIONS TO VISIBILITY.

* - STATION DOES NOT REPORT WEATHER SUCH AS PRECIPITATION OR FOG.

+ - STATION NOT QUALITY CONTROLLED BY THE NATIONAL WEATHER SERVICE.
    USE DATA WITH CAUTION...ESPECIALLY DEWPOINT AND RELATIVE
    HUMIDITY OBSERVATIONS.

INZ001>003-010>013-019-020-121200-
NORTHWEST INDIANA

CITY           SKY/WX    TMP DP  RH WIND       PRES   REMARKS
GARY /AIRPORT/ PTCLDY    72  61  68 SE8       30.07S
KNOX *+        PTCLDY    69  60  73 S8        30.08F
LA PORTE +     PTCLDY    67  61  80 S6        30.10S
MICHIGAN CITY+ CLOUDY    70  57  64 S7        30.08S
MONTICELLO +   CLOUDY    69  62  78 SE3       30.10S
RENSSELAER +   MOCLDY    70  63  78 SE6       30.09S
VALPARAISO     PTCLDY    68  61  78 S7        30.09S

$$

LMZ046-743>745-121200-
SOUTHERN LAKE MICHIGAN

STATION/POSITION TIME  TEMP WIND        PRES
                       AIR  DIR/SP/G
                 (UTC) (F)  (DEG/KT/KT) (MB)
MICHIGAN CITY    1100   73  140/ 11/ 15   N/A

$$

INZ004-005-014>016-021>024-121200-
NORTH CENTRAL INDIANA

CITY           SKY/WX    TMP DP  RH WIND       PRES   REMARKS
GOSHEN         PTCLDY    67  61  81 SE3       30.11S
LOGANSPORT +   CLEAR     64  59  82 SE5       30.13R
PERU/GRISSOM   MOCLDY    68  65  92 S6        30.12S
ROCHESTER +    CLEAR     72  61  68 S6        30.12S
SOUTH BEND     PTCLDY    69  60  73 S5        30.10S
WARSAW +       MOCLDY    70  61  73 CALM      30.12S

$$

INZ006>009-017-018-025>027-121200-
NORTHEAST INDIANA

CITY           SKY/WX    TMP DP  RH WIND       PRES   REMARKS
ANGOLA *+      CLEAR     63  54  72 CALM      30.13S
AUBURN +       PTCLDY    66  61  82 CALM      30.14F
FORT WAYNE     MOCLDY    68  61  78 S3        30.14S
HUNTINGTON +   MOCLDY    68  62  81 CALM      30.13S

$$

INZ028-029-035-036-043>045-051>053-121200-
WEST CENTRAL INDIANA

CITY           SKY/WX    TMP DP  RH WIND       PRES   REMARKS
GREENCASTLE +  CLOUDY    64  63  94 CALM      30.14S
LAFAYETTE      CLOUDY    70  61  73 CALM      30.10S
TERRE HAUTE    MOCLDY    70  64  81 CALM      30.13R

$$

INZ030>032-037>040-046>048-054>057-064-065-121200-
CENTRAL INDIANA

CITY           SKY/WX    TMP DP  RH WIND       PRES   REMARKS
CP ATTERBURY + MOCLDY    63  61  94 CALM      30.16S
COLUMBUS       CLEAR     64  63  94 CALM      30.16
INDIANAPOLIS   MOCLDY    68  60  75 S6        30.13F
-EAGLE CREEK   PTCLDY    69  61  75 CALM      30.13F
KOKOMO *+      PTCLDY    64  61  88 S5        30.13S
MARION +       MOCLDY    65  60  84 S3        30.14S
MT COMFORT *+  PTCLDY    66  66 100 S5        30.15F
SHELBYVILLE    MOCLDY    66  61  84 SE6       30.14F
ZIONSVILLE +   PTCLDY    68  61  78 S5        30.15S

$$

INZ033-034-041-042-049-050-058-059-121200-
EAST CENTRAL INDIANA

CITY           SKY/WX    TMP DP  RH WIND       PRES   REMARKS
MUNCIE         MOCLDY    71  59  65 S6        30.15S

$$

INZ060-061-067>069-081>083-085>088-121200-
SOUTHWEST INDIANA

CITY           SKY/WX    TMP DP  RH WIND       PRES   REMARKS
EVANSVILLE     MOCLDY    74  65  73 CALM      30.15R
HUNTINGBURG *+ CLOUDY    70  63  78 CALM      30.15S
WASHINGTON +   MOCLDY    68  65  90 S6        30.13S

$$

INZ062-063-066-070>080-084-089>092-121200-
SOUTH CENTRAL AND SOUTHEAST INDIANA

CITY           SKY/WX    TMP DP  RH WIND       PRES   REMARKS
BLOOMINGTON    CLOUDY    70  62  76 SE3       30.15R
NORTH VERNON + MOCLDY    64  64 100 CALM      30.17

$$



USA.gov is the U.S. government's official web portal to all federal, state and local government web resources and services.